Weather History for O'Neill, NE

Change the Weather History Date:

Wednesday, January 16, 2013

  Actual Average Record
Temperature  
Mean Temperature 40 °F -  
Max Temperature 51 °F 30 °F 58 °F (1973)
Min Temperature 26 °F 9 °F -22 °F (1977)
Degree Days  
Heating Degree Days 26    
Moisture  
Dew Point 28 °F    
Average Humidity 66    
Maximum Humidity 94    
Minimum Humidity 35    
Precipitation  
Precipitation 0.00 in - - ()
Sea Level Pressure  
Sea Level Pressure 30.00 in    
Wind  
Wind Speed 14 mph (WNW)    
Max Wind Speed 31 mph    
Max Gust Speed 38 mph    
Visibility 10 miles    
Events Snow    
Averages and records for this station are not official NWS values.
T = Trace of Precipitation, MM = Missing Value Source: NWS Daily Summary

Daily Weather History Graph

Daily Weather History Graph

Search for Another Location

Airport:

Trip Planner

Search our weather history database for the weather conditions in past years. The results will help you decide how hot, cold, wet, or windy it might be!

Date:

Astronomy

Jan. 16, 2013 Rise Set
Actual Time 8:01 AM CST 5:28 PM CST
Civil Twilight 7:29 AM CST 5:59 PM CST
Nautical Twilight 6:55 AM CST 6:34 PM CST
Astronomical Twilight 6:21 AM CST 7:08 PM CST
Moon 10:30 AM CST (1/16) 11:30 PM CST (1/16)
Length of Visible Light 10h 29m
Length of Day
9h 27m
Waxing Crescent, 28% of the Moon is Illuminated
Jan 16
Waxing Crescent
Jan 18
First Quarter
Jan 26
Full
Feb 3
Last Quarter
Feb 10
New

Hourly Weather History & Observations

Time (CST) Temp. Windchill Dew Point Humidity Pressure Visibility Wind Dir Wind Speed Gust Speed Precip Events Conditions
12:15 AM 29.5 °F 19.9 °F 23.0 °F 77% 29.88 in 10.0 mi SW 11.5 mph - N/A   Overcast
12:35 AM 30.2 °F 19.8 °F 24.6 °F 80% 29.88 in 10.0 mi WSW 13.8 mph - N/A   Overcast
12:55 AM 30.4 °F 21.0 °F 25.5 °F 82% 29.88 in 5.0 mi WSW 11.5 mph - N/A Snow Light Snow
1:15 AM 30.7 °F 22.0 °F 25.7 °F 82% 29.87 in 10.0 mi SW 10.4 mph - N/A   Overcast
1:35 AM 31.1 °F 24.5 °F 26.6 °F 83% 29.86 in 10.0 mi SSW 6.9 mph - N/A   Overcast
1:55 AM 33.6 °F 25.0 °F 29.3 °F 84% 29.87 in 10.0 mi WSW 11.5 mph - N/A   Overcast
2:35 AM 35.6 °F 26.6 °F 30.9 °F 83% 29.86 in 10.0 mi West 13.8 mph - N/A   Overcast
2:55 AM 35.6 °F 27.5 °F 30.2 °F 81% 29.86 in 10.0 mi West 11.5 mph 17.3 mph N/A   Overcast
3:15 AM 35.6 °F 28.0 °F 30.2 °F 81% 29.85 in 10.0 mi West 10.4 mph - N/A   Overcast
3:35 AM 35.6 °F 28.0 °F 30.7 °F 82% 29.86 in 10.0 mi West 10.4 mph - N/A   Overcast
3:55 AM 37.9 °F 29.6 °F 31.1 °F 76% 29.86 in 10.0 mi West 13.8 mph - N/A   Overcast
4:15 AM 38.8 °F 30.0 °F 30.9 °F 73% 29.86 in 10.0 mi West 16.1 mph 21.9 mph N/A   Overcast
4:35 AM 39.2 °F 30.5 °F 30.7 °F 72% 29.86 in 10.0 mi WNW 16.1 mph 23.0 mph N/A   Overcast
4:55 AM 39.4 °F 30.4 °F 30.7 °F 71% 29.86 in 10.0 mi WNW 17.3 mph 23.0 mph N/A   Overcast
5:15 AM 39.6 °F 30.6 °F 30.7 °F 71% 29.87 in 10.0 mi WNW 17.3 mph 23.0 mph N/A   Overcast
5:35 AM 40.1 °F 31.6 °F 30.6 °F 69% 29.87 in 10.0 mi WNW 16.1 mph 20.7 mph N/A   Overcast
5:55 AM 40.1 °F 31.6 °F 30.2 °F 68% 29.88 in 10.0 mi WNW 16.1 mph 19.6 mph N/A   Overcast
6:15 AM 39.2 °F 30.5 °F 30.2 °F 70% 29.89 in 10.0 mi WNW 16.1 mph - N/A   Overcast
6:35 AM 38.5 °F 28.9 °F 29.7 °F 71% 29.89 in 10.0 mi WNW 18.4 mph 25.3 mph N/A   Scattered Clouds
6:55 AM 38.3 °F 29.7 °F 29.5 °F 71% 29.89 in 10.0 mi West 15.0 mph 21.9 mph N/A   Scattered Clouds
7:15 AM 38.8 °F 29.7 °F 29.7 °F 70% 29.91 in 10.0 mi WNW 17.3 mph - N/A   Overcast
7:35 AM 39.2 °F 30.8 °F 29.7 °F 69% 29.91 in 10.0 mi WNW 15.0 mph - N/A   Overcast
7:55 AM 37.6 °F 29.6 °F 29.3 °F 72% 29.91 in 10.0 mi West 12.7 mph - N/A   Scattered Clouds
8:15 AM 35.4 °F 29.0 °F 28.4 °F 76% 29.92 in 10.0 mi West 8.1 mph - N/A   Clear
8:35 AM 35.6 °F 28.0 °F 28.9 °F 77% 29.93 in 10.0 mi West 10.4 mph - N/A   Clear
8:55 AM 37.0 °F 29.8 °F 28.9 °F 73% 29.93 in 10.0 mi WSW 10.4 mph - N/A   Clear
9:15 AM 37.4 °F 29.8 °F 29.1 °F 72% 29.95 in 10.0 mi WSW 11.5 mph - N/A   Clear
9:35 AM 38.3 °F 30.9 °F 29.3 °F 70% 29.95 in 10.0 mi West 11.5 mph - N/A   Clear
9:55 AM 39.9 °F 32.5 °F 29.3 °F 66% 29.95 in 10.0 mi West 12.7 mph 18.4 mph N/A   Clear
10:15 AM 41.9 °F 34.6 °F 29.1 °F 61% 29.95 in 10.0 mi West 13.8 mph - N/A   Clear
10:35 AM 43.9 °F 36.5 °F 28.4 °F 55% 29.96 in 10.0 mi West 16.1 mph 23.0 mph N/A   Clear
10:55 AM 45.9 °F 38.8 °F 27.7 °F 49% 29.96 in 10.0 mi West 17.3 mph 21.9 mph N/A   Clear
11:15 AM 47.7 °F - 27.3 °F 45% 29.96 in 10.0 mi WNW 18.4 mph 25.3 mph N/A   Clear
11:35 AM 49.3 °F - 25.5 °F 40% 29.96 in 10.0 mi NW 21.9 mph 34.5 mph N/A   Clear
11:55 AM 50.4 °F - 24.6 °F 37% 29.95 in 10.0 mi NW 23.0 mph 34.5 mph N/A   Clear
12:15 PM 50.9 °F - 23.9 °F 35% 29.94 in 10.0 mi NW 29.9 mph 36.8 mph N/A   Clear
12:35 PM 51.1 °F - 24.6 °F 36% 29.95 in 10.0 mi NW 27.6 mph 35.7 mph N/A   Clear
12:55 PM 50.9 °F - 25.0 °F 36% 29.95 in 10.0 mi NW 31.1 mph 38.0 mph N/A   Clear
1:15 PM 50.5 °F - 25.7 °F 38% 29.95 in 10.0 mi NW 25.3 mph 34.5 mph N/A   Clear
1:35 PM 51.3 °F - 25.9 °F 37% 29.96 in 10.0 mi NW 28.8 mph 35.7 mph N/A   Clear
1:55 PM 51.1 °F - 26.1 °F 38% 29.96 in 10.0 mi NW 25.3 mph 35.7 mph N/A   Clear
2:15 PM 50.4 °F - 26.1 °F 39% 29.98 in 10.0 mi NNW 29.9 mph 35.7 mph N/A   Clear
2:35 PM 50.0 °F - 26.4 °F 40% 29.98 in 10.0 mi NW 26.5 mph 32.2 mph N/A   Clear
2:55 PM 49.1 °F - 26.6 °F 42% 29.99 in 10.0 mi NNW 23.0 mph 32.2 mph N/A   Clear
3:15 PM 49.3 °F - 26.8 °F 42% 30.00 in 10.0 mi NNW 23.0 mph 26.5 mph N/A   Clear
3:35 PM 49.1 °F - 26.6 °F 42% 30.01 in 10.0 mi NW 18.4 mph 25.3 mph N/A   Clear
3:55 PM 49.1 °F - 27.1 °F 43% 30.03 in 10.0 mi NW 17.3 mph - N/A   Clear
4:15 PM 48.2 °F - 27.3 °F 44% 30.04 in 10.0 mi NW 17.3 mph 25.3 mph N/A   Clear
4:35 PM 46.8 °F - 27.7 °F 47% 30.06 in 10.0 mi NW 19.6 mph - N/A   Clear
4:55 PM 45.3 °F 39.7 °F 27.9 °F 51% 30.07 in 10.0 mi NW 11.5 mph - N/A   Clear
5:15 PM 43.5 °F 36.7 °F 27.9 °F 54% 30.09 in 10.0 mi NW 13.8 mph 17.3 mph N/A   Clear
5:35 PM 42.8 °F 35.8 °F 28.4 °F 57% 30.10 in 10.0 mi NW 13.8 mph - N/A   Clear
5:55 PM 41.2 °F 35.0 °F 28.4 °F 60% 30.11 in 10.0 mi NW 10.4 mph 18.4 mph N/A   Clear
6:15 PM 39.6 °F 33.5 °F 28.4 °F 64% 30.13 in 10.0 mi NW 9.2 mph - N/A   Clear
6:35 PM 38.5 °F 32.7 °F 28.4 °F 67% 30.13 in 10.0 mi NW 8.1 mph - N/A   Clear
6:55 PM 37.9 °F 32.7 °F 28.6 °F 69% 30.14 in 10.0 mi NW 6.9 mph - N/A   Clear
7:15 PM 37.2 °F 30.6 °F 28.9 °F 72% 30.15 in 10.0 mi NW 9.2 mph - N/A   Clear
7:35 PM 37.2 °F 29.6 °F 29.3 °F 73% 30.16 in 10.0 mi NW 11.5 mph - N/A   Clear
7:55 PM 37.4 °F 29.3 °F 29.8 °F 74% 30.16 in 10.0 mi NW 12.7 mph - N/A   Clear
8:15 PM 36.7 °F 28.4 °F 29.7 °F 76% 30.16 in 10.0 mi NW 12.7 mph - N/A   Clear
8:35 PM 36.5 °F 28.7 °F 29.8 °F 77% 30.17 in 10.0 mi NW 11.5 mph - N/A   Clear
8:55 PM 35.1 °F 27.9 °F 29.3 °F 80% 30.17 in 10.0 mi NNW 9.2 mph - N/A   Clear
9:15 PM 33.6 °F 28.4 °F 29.1 °F 84% 30.18 in 10.0 mi NNW 5.8 mph - N/A   Clear
9:35 PM 32.2 °F 26.7 °F 28.2 °F 85% 30.19 in 10.0 mi NNW 5.8 mph - N/A   Clear
9:55 PM 31.8 °F 24.6 °F 28.2 °F 87% 30.20 in 10.0 mi NW 8.1 mph - N/A   Clear
10:15 PM 30.7 °F 24.9 °F 27.3 °F 87% 30.22 in 10.0 mi NW 5.8 mph - N/A   Clear
10:35 PM 28.9 °F 22.8 °F 26.1 °F 89% 30.22 in 10.0 mi North 5.8 mph - N/A   Clear
10:55 PM 29.8 °F 24.9 °F 27.1 °F 90% 30.23 in 10.0 mi North 4.6 mph - N/A   Clear
11:15 PM 28.2 °F - 26.2 °F 92% 30.23 in 10.0 mi Calm Calm - N/A   Clear
11:35 PM 28.0 °F - 26.6 °F 94% 30.24 in 10.0 mi Calm Calm - N/A   Clear
11:55 PM 26.6 °F - 25.0 °F 94% 30.24 in 10.0 mi Calm Calm - N/A   Clear